STARLINK-3711, 52131

Orbit data source: Space-Track

STARLINK-3711, 52131 is a payload satellite owned by SpaceX/Seattle (US) in LEO that was launched on Sat, 19 Mar 2022 UTC via an FALCON 9 launch vehicle from the Air Force Eastern Test Range (AFETR). Payload-class satellites include a variety of spacecraft equipped with specific instruments for various scientific and technological missions. These include communications satellites like Starlink; space stations such as the ISS; scientific satellites like the Hubble; Earth observation satellites from companies like Planet Labs, Umbra, and HawkEye 360; GPS; miniature CubeSats for education and research; and military/defense satellites.

Loading next visibility...
Identifier
52131, 2022-029AV
Orbit
LEO
Country
Flag of USUS
Related business
Manufacturer
SpaceX/Seattle
Mission
Partially operational Commercial Communications
Bus & Motor
STARLINK, Unknown motor
Mass
297 kg wet, ~275 kg dry
Launch date (UTC)
2022-03-19 (4 years ago)
Launch vehicle
FALCON 9
Launch site
Air Force Eastern Test Range (AFETR)
Object type
Payload
Rocket body
Debris
Shape & HBR
Box + 1 Pan, 10.1 m
Radar Cross Section
13.562 m², Large (>1 m²)

Expand to show TLE details & history
Last TLE update: 3 days ago

TLE from 3 days ago
0 STARLINK-3711
1 52131U 22029AV  26170.80451798  .00025357  00000-0  12184-2 0  9995
2 52131  53.2138 323.5954 0002501 158.5504 201.5598 15.18697048236452
Epoch: 2026-06-19T19:18Z
TLE epoch observation values (Epoch: 2026-06-19T19:18:30.353Z)
Latitude
0.00001°
Longitude
125.9407°
Altitude
512.281 km
Speed
7.608 km/s
True Right ascension
21h 34m 22s
True Declination
0° 00' 00"
Sunlit
Object was in full shadow at epoch
Visualization orbit readout
Latitude
Unknown
Longitude
Unknown
Altitude
Unknown
Speed
Unknown
Apparent Right ascension
Unknown
Apparent Declination
Unknown
Sunlit
N/A
Visualization observer readout
Local Sidereal Time
21:27:33
Azimuth
Unknown
Elevation
Unknown
Doppler factor
Unknown
Orbital elements
Apogee altitude
511.747 km
Perigee altitude
508.301 km
Semi-major axis
6,888.161 km
Eccentricity
0.00025
Inclination
53.2138°
RAAN
323.5954°
Arg. of periapsis
158.5504°
True anomaly
201.54927°
Mean anomaly
201.5598°
Eccentric anomaly
201.55454°
Mean motion
3.79654 °/min
Orbital period
94.82 mins
BSTAR
0.0012184
Loading maneuver chart data...
Computing Atmospheric mass density...
Loading historical data...
Loading historical data...
Loading historical data...
Loading historical data...
Loading historical data...
Loading historical data...
Loading historical data...

Documentation

Showing up to 5 results
|